Time,TemperatureF,DewpointF,PressureIn,WindDirection,WindDirectionDegrees,WindSpeedMPH,WindSpeedGustMPH,Humidity,HourlyPrecipIn,Conditions,Clouds,dailyrainin,SoftwareType,DateUTC
2013-01-19 00:02:00,44.4,27.4,30.07,SW,227,5.0,10.0,51,0.00,,,0.00,Wunderground v.1.15,2013-01-19 06:02:00,
2013-01-19 00:08:00,44.3,27.8,30.07,South,183,5.0,10.0,52,0.00,,,0.00,Wunderground v.1.15,2013-01-19 06:08:00,
2013-01-19 00:14:00,44.3,27.8,30.07,SSW,208,5.0,10.0,52,0.00,,,0.00,Wunderground v.1.15,2013-01-19 06:14:00,
2013-01-19 00:20:00,44.3,27.8,30.07,SSW,209,5.0,5.0,52,0.00,,,0.00,Wunderground v.1.15,2013-01-19 06:20:00,
2013-01-19 00:26:00,44.2,27.7,30.07,SW,215,4.0,10.0,52,0.00,,,0.00,Wunderground v.1.15,2013-01-19 06:26:00,
2013-01-19 00:32:00,44.2,28.1,30.07,SW,226,4.0,10.0,53,0.00,,,0.00,Wunderground v.1.15,2013-01-19 06:32:00,
2013-01-19 00:38:00,44.1,28.0,30.07,SW,222,4.0,10.0,53,0.00,,,0.00,Wunderground v.1.15,2013-01-19 06:38:00,
2013-01-19 00:44:00,44.0,28.0,30.07,SSW,202,3.0,10.0,53,0.00,,,0.00,Wunderground v.1.15,2013-01-19 06:44:00,
2013-01-19 00:50:00,43.8,27.8,30.07,SSW,202,3.0,3.0,53,0.00,,,0.00,Wunderground v.1.15,2013-01-19 06:50:00,
2013-01-19 00:56:00,43.8,27.8,30.06,South,183,3.0,10.0,53,0.00,,,0.00,Wunderground v.1.15,2013-01-19 06:56:00,
2013-01-19 01:02:00,43.6,27.6,30.06,SSE,156,4.0,11.0,53,0.00,,,0.00,Wunderground v.1.15,2013-01-19 07:02:00,
2013-01-19 01:08:00,43.6,28.0,30.06,SW,236,4.0,11.0,54,0.00,,,0.00,Wunderground v.1.15,2013-01-19 07:08:00,
2013-01-19 01:14:00,43.6,28.0,30.06,SSW,203,4.0,5.0,54,0.00,,,0.00,Wunderground v.1.15,2013-01-19 07:14:00,
2013-01-19 01:20:00,43.5,27.9,30.06,SW,214,4.0,4.0,54,0.00,,,0.00,Wunderground v.1.15,2013-01-19 07:20:00,
2013-01-19 01:26:00,43.6,28.0,30.06,SW,216,4.0,5.0,54,0.00,,,0.00,Wunderground v.1.15,2013-01-19 07:26:00,
2013-01-19 01:32:00,43.6,28.0,30.06,SW,219,4.0,4.0,54,0.00,,,0.00,Wunderground v.1.15,2013-01-19 07:32:00,
2013-01-19 01:38:00,43.5,27.9,30.06,South,191,4.0,4.0,54,0.00,,,0.00,Wunderground v.1.15,2013-01-19 07:38:00,
2013-01-19 01:44:00,43.4,28.3,30.06,SSW,209,4.0,6.0,55,0.00,,,0.00,Wunderground v.1.15,2013-01-19 07:44:00,
2013-01-19 01:50:00,43.3,28.2,30.06,SSW,196,4.0,4.0,55,0.00,,,0.00,Wunderground v.1.15,2013-01-19 07:50:00,
2013-01-19 01:56:00,43.3,28.2,30.06,South,181,4.0,6.0,55,0.00,,,0.00,Wunderground v.1.15,2013-01-19 07:56:00,
2013-01-19 02:02:00,43.3,28.2,30.06,SW,221,4.0,9.0,55,0.00,,,0.00,Wunderground v.1.15,2013-01-19 08:02:00,
2013-01-19 02:08:00,43.4,28.3,30.06,SSW,209,4.0,9.0,55,0.00,,,0.00,Wunderground v.1.15,2013-01-19 08:08:00,
2013-01-19 02:14:00,43.3,28.2,30.05,SSW,194,4.0,9.0,55,0.00,,,0.00,Wunderground v.1.15,2013-01-19 08:14:00,
2013-01-19 02:20:00,43.2,28.1,30.06,SW,217,3.0,9.0,55,0.00,,,0.00,Wunderground v.1.15,2013-01-19 08:20:00,
2013-01-19 02:26:00,43.1,28.0,30.05,SW,228,3.0,9.0,55,0.00,,,0.00,Wunderground v.1.15,2013-01-19 08:26:00,
2013-01-19 02:32:00,42.9,28.3,30.05,SW,225,4.0,9.0,56,0.00,,,0.00,Wunderground v.1.15,2013-01-19 08:32:00,
2013-01-19 02:38:00,42.9,28.3,30.05,South,190,4.0,9.0,56,0.00,,,0.00,Wunderground v.1.15,2013-01-19 08:38:00,
2013-01-19 02:44:00,43.0,28.4,30.05,SW,229,4.0,9.0,56,0.00,,,0.00,Wunderground v.1.15,2013-01-19 08:44:00,
2013-01-19 02:50:00,42.9,28.3,30.05,SSW,196,4.0,9.0,56,0.00,,,0.00,Wunderground v.1.15,2013-01-19 08:50:00,
2013-01-19 02:56:00,42.9,28.3,30.04,SW,219,4.0,9.0,56,0.00,,,0.00,Wunderground v.1.15,2013-01-19 08:56:00,
2013-01-19 03:02:00,42.8,28.6,30.04,SSW,212,4.0,9.0,57,0.00,,,0.00,Wunderground v.1.15,2013-01-19 09:02:00,
2013-01-19 03:08:00,43.0,28.8,30.04,SW,225,5.0,9.0,57,0.00,,,0.00,Wunderground v.1.15,2013-01-19 09:08:00,
2013-01-19 03:14:00,43.1,28.9,30.04,SSW,213,4.0,9.0,57,0.00,,,0.00,Wunderground v.1.15,2013-01-19 09:14:00,
2013-01-19 03:20:00,43.1,28.9,30.04,South,186,4.0,4.0,57,0.00,,,0.00,Wunderground v.1.15,2013-01-19 09:20:00,
2013-01-19 03:26:00,42.8,28.6,30.03,South,187,4.0,9.0,57,0.00,,,0.00,Wunderground v.1.15,2013-01-19 09:26:00,
2013-01-19 03:32:00,42.9,28.7,30.03,SSE,163,5.0,9.0,57,0.00,,,0.00,Wunderground v.1.15,2013-01-19 09:32:00,
2013-01-19 03:38:00,42.9,29.1,30.02,SW,214,5.0,9.0,58,0.00,,,0.00,Wunderground v.1.15,2013-01-19 09:38:00,
2013-01-19 03:44:00,42.9,29.1,30.02,SSW,212,5.0,9.0,58,0.00,,,0.00,Wunderground v.1.15,2013-01-19 09:44:00,
2013-01-19 03:50:00,42.9,29.1,30.02,SW,223,5.0,9.0,58,0.00,,,0.00,Wunderground v.1.15,2013-01-19 09:50:00,
2013-01-19 03:56:00,42.8,29.0,30.02,SSW,204,4.0,9.0,58,0.00,,,0.00,Wunderground v.1.15,2013-01-19 09:56:00,
2013-01-19 04:02:00,42.7,28.9,30.02,SW,219,4.0,8.0,58,0.00,,,0.00,Wunderground v.1.15,2013-01-19 10:02:00,
2013-01-19 04:08:00,42.6,28.8,30.01,SSW,210,4.0,8.0,58,0.00,,,0.00,Wunderground v.1.15,2013-01-19 10:08:00,
2013-01-19 04:14:00,42.5,28.8,30.01,SW,229,4.0,4.0,58,0.00,,,0.00,Wunderground v.1.15,2013-01-19 10:14:00,
2013-01-19 04:20:00,42.5,29.2,30.01,SSW,210,4.0,4.0,59,0.00,,,0.00,Wunderground v.1.15,2013-01-19 10:20:00,
2013-01-19 04:26:00,42.5,29.2,30.01,SSW,209,4.0,8.0,59,0.00,,,0.00,Wunderground v.1.15,2013-01-19 10:26:00,
2013-01-19 04:32:00,42.6,29.3,30.01,SW,225,4.0,5.0,59,0.00,,,0.00,Wunderground v.1.15,2013-01-19 10:32:00,
2013-01-19 04:38:00,42.6,29.3,30.01,SSW,206,4.0,6.0,59,0.00,,,0.00,Wunderground v.1.15,2013-01-19 10:38:00,
2013-01-19 04:44:00,42.7,29.8,30.01,SW,233,5.0,5.0,60,0.00,,,0.00,Wunderground v.1.15,2013-01-19 10:44:00,
2013-01-19 04:50:00,42.7,29.8,30.01,SW,225,5.0,5.0,60,0.00,,,0.00,Wunderground v.1.15,2013-01-19 10:50:00,
2013-01-19 04:56:00,42.6,29.7,30.01,SSW,209,4.0,7.0,60,0.00,,,0.00,Wunderground v.1.15,2013-01-19 10:56:00,
2013-01-19 05:02:00,42.5,29.6,30.01,SW,217,4.0,7.0,60,0.00,,,0.00,Wunderground v.1.15,2013-01-19 11:02:00,
2013-01-19 05:08:00,42.6,29.7,30.00,SSW,206,5.0,7.0,60,0.00,,,0.00,Wunderground v.1.15,2013-01-19 11:08:00,
2013-01-19 05:14:00,42.5,29.6,30.00,SSW,210,4.0,7.0,60,0.00,,,0.00,Wunderground v.1.15,2013-01-19 11:14:00,
2013-01-19 06:48:00,41.5,29.8,29.98,SW,215,4.0,7.0,63,0.00,,,0.00,Wunderground v.1.15,2013-01-19 12:48:00,
2013-01-19 06:52:00,41.5,29.8,29.98,SW,221,4.0,7.0,63,0.00,,,0.00,Wunderground v.1.15,2013-01-19 12:52:00,
2013-01-19 06:58:00,41.4,29.7,29.98,SSW,194,4.0,7.0,63,0.00,,,0.00,Wunderground v.1.15,2013-01-19 12:58:00,
2013-01-19 07:02:00,41.4,29.7,29.98,South,181,4.0,7.0,63,0.00,,,0.00,Wunderground v.1.15,2013-01-19 13:02:00,
2013-01-19 07:04:00,41.5,29.8,29.98,South,190,4.0,7.0,63,0.00,,,0.00,Wunderground v.1.15,2013-01-19 13:04:00,
2013-01-19 07:10:00,41.6,29.9,29.98,SW,215,4.0,4.0,63,0.00,,,0.00,Wunderground v.1.15,2013-01-19 13:10:00,
2013-01-19 07:16:00,41.8,30.5,29.98,SW,229,4.0,7.0,64,0.00,,,0.00,Wunderground v.1.15,2013-01-19 13:16:00,
2013-01-19 07:22:00,41.7,30.4,29.99,SW,232,4.0,6.0,64,0.00,,,0.00,Wunderground v.1.15,2013-01-19 13:22:00,
2013-01-19 07:28:00,41.7,30.4,29.98,SW,222,4.0,7.0,64,0.00,,,0.00,Wunderground v.1.15,2013-01-19 13:28:00,
2013-01-19 07:34:00,41.7,30.4,29.98,SW,217,4.0,7.0,64,0.00,,,0.00,Wunderground v.1.15,2013-01-19 13:34:00,
2013-01-19 07:40:00,41.8,30.5,29.98,SSW,211,4.0,7.0,64,0.00,,,0.00,Wunderground v.1.15,2013-01-19 13:40:00,
2013-01-19 07:46:00,41.8,30.5,29.98,SSW,211,4.0,7.0,64,0.00,,,0.00,Wunderground v.1.15,2013-01-19 13:46:00,
2013-01-19 07:52:00,41.9,30.6,29.98,SW,223,4.0,6.0,64,0.00,,,0.00,Wunderground v.1.15,2013-01-19 13:52:00,
2013-01-19 07:58:00,42.0,30.7,29.98,SW,217,4.0,7.0,64,0.00,,,0.00,Wunderground v.1.15,2013-01-19 13:58:00,
2013-01-19 08:04:00,42.2,31.3,29.98,SSW,206,4.0,5.0,65,0.00,,,0.00,Wunderground v.1.15,2013-01-19 14:04:00,
2013-01-19 08:10:00,42.4,31.5,29.98,SW,223,4.0,4.0,65,0.00,,,0.00,Wunderground v.1.15,2013-01-19 14:10:00,
2013-01-19 08:16:00,42.6,31.7,29.99,SW,217,4.0,4.0,65,0.00,,,0.00,Wunderground v.1.15,2013-01-19 14:16:00,
2013-01-19 08:22:00,42.9,31.9,29.99,SW,224,4.0,4.0,65,0.00,,,0.00,Wunderground v.1.15,2013-01-19 14:22:00,
2013-01-19 08:28:00,43.3,32.3,29.99,SW,225,5.0,6.0,65,0.00,,,0.00,Wunderground v.1.15,2013-01-19 14:28:00,
2013-01-19 08:34:00,43.7,32.7,29.99,South,180,5.0,9.0,65,0.00,,,0.00,Wunderground v.1.15,2013-01-19 14:34:00,
2013-01-19 08:40:00,44.2,33.2,29.99,SW,217,5.0,5.0,65,0.00,,,0.00,Wunderground v.1.15,2013-01-19 14:40:00,
2013-01-19 08:46:00,44.6,33.6,29.99,SW,229,5.0,12.0,65,0.00,,,0.00,Wunderground v.1.15,2013-01-19 14:46:00,
2013-01-19 08:52:00,45.0,33.9,29.99,SSW,198,5.0,9.0,65,0.00,,,0.00,Wunderground v.1.15,2013-01-19 14:52:00,
2013-01-19 08:58:00,45.5,34.4,29.99,SW,219,5.0,9.0,65,0.00,,,0.00,Wunderground v.1.15,2013-01-19 14:58:00,
2013-01-19 09:04:00,46.0,34.5,29.99,SW,219,6.0,9.0,64,0.00,,,0.00,Wunderground v.1.15,2013-01-19 15:04:00,
2013-01-19 09:10:00,46.4,35.3,29.98,SW,232,6.0,9.0,65,0.00,,,0.00,Wunderground v.1.15,2013-01-19 15:10:00,
2013-01-19 09:16:00,46.9,35.4,29.98,SW,230,7.0,10.0,64,0.00,,,0.00,Wunderground v.1.15,2013-01-19 15:16:00,
2013-01-19 09:22:00,47.3,35.7,29.99,SSW,207,7.0,9.0,64,0.00,,,0.00,Wunderground v.1.15,2013-01-19 15:22:00,
2013-01-19 09:28:00,47.7,36.1,29.99,SW,217,8.0,13.0,64,0.00,,,0.00,Wunderground v.1.15,2013-01-19 15:28:00,
2013-01-19 09:34:00,48.1,36.5,29.99,SW,225,7.0,11.0,64,0.00,,,0.00,Wunderground v.1.15,2013-01-19 15:34:00,
2013-01-19 09:40:00,48.4,36.4,29.99,SSW,210,8.0,10.0,63,0.00,,,0.00,Wunderground v.1.15,2013-01-19 15:40:00,
2013-01-19 09:46:00,48.7,36.7,29.99,SW,225,8.0,10.0,63,0.00,,,0.00,Wunderground v.1.15,2013-01-19 15:46:00,
2013-01-19 09:52:00,49.0,36.9,29.99,SW,214,8.0,9.0,63,0.00,,,0.00,Wunderground v.1.15,2013-01-19 15:52:00,
2013-01-19 09:58:00,49.2,37.1,29.99,SW,223,8.0,10.0,63,0.00,,,0.00,Wunderground v.1.15,2013-01-19 15:58:00,
2013-01-19 10:04:00,49.5,37.0,29.99,SW,215,8.0,12.0,62,0.00,,,0.00,Wunderground v.1.15,2013-01-19 16:04:00,
2013-01-19 10:10:00,49.8,37.3,29.99,SSW,210,8.0,8.0,62,0.00,,,0.00,Wunderground v.1.15,2013-01-19 16:10:00,
2013-01-19 10:16:00,49.9,37.4,29.99,SW,234,8.0,9.0,62,0.00,,,0.00,Wunderground v.1.15,2013-01-19 16:16:00,
2013-01-19 10:22:00,50.2,37.7,29.99,WSW,249,8.0,10.0,62,0.00,,,0.00,Wunderground v.1.15,2013-01-19 16:22:00,
2013-01-19 10:28:00,50.4,37.4,29.99,SW,232,9.0,12.0,61,0.00,,,0.00,Wunderground v.1.15,2013-01-19 16:28:00,
2013-01-19 10:34:00,50.6,37.6,29.99,SW,236,9.0,12.0,61,0.00,,,0.00,Wunderground v.1.15,2013-01-19 16:34:00,
2013-01-19 10:40:00,50.7,37.7,29.98,SW,230,10.0,10.0,61,0.00,,,0.00,Wunderground v.1.15,2013-01-19 16:40:00,
2013-01-19 10:46:00,50.8,37.8,29.98,WSW,237,10.0,14.0,61,0.00,,,0.00,Wunderground v.1.15,2013-01-19 16:46:00,
2013-01-19 10:52:00,51.0,38.0,29.97,SSW,212,9.0,14.0,61,0.00,,,0.00,Wunderground v.1.15,2013-01-19 16:52:00,
2013-01-19 10:58:00,51.1,38.1,29.97,SSW,211,9.0,14.0,61,0.00,,,0.00,Wunderground v.1.15,2013-01-19 16:58:00,
2013-01-19 11:04:00,51.5,38.5,29.97,SW,215,7.0,11.0,61,0.00,,,0.00,Wunderground v.1.15,2013-01-19 17:04:00,
2013-01-19 11:10:00,51.6,38.2,29.97,WSW,238,8.0,8.0,60,0.00,,,0.00,Wunderground v.1.15,2013-01-19 17:10:00,
2013-01-19 11:16:00,51.7,38.3,29.97,WSW,249,10.0,10.0,60,0.00,,,0.00,Wunderground v.1.15,2013-01-19 17:16:00,
2013-01-19 11:22:00,51.8,38.3,29.95,SW,233,8.0,12.0,60,0.00,,,0.00,Wunderground v.1.15,2013-01-19 17:22:00,
2013-01-19 11:28:00,52.0,38.5,29.95,West,271,8.0,12.0,60,0.00,,,0.00,Wunderground v.1.15,2013-01-19 17:28:00,
2013-01-19 11:34:00,52.2,38.7,29.95,SW,232,8.0,13.0,60,0.00,,,0.00,Wunderground v.1.15,2013-01-19 17:34:00,
2013-01-19 11:40:00,52.4,38.9,29.94,SW,221,8.0,11.0,60,0.00,,,0.00,Wunderground v.1.15,2013-01-19 17:40:00,
2013-01-19 11:46:00,52.8,39.3,29.94,SW,221,7.0,11.0,60,0.00,,,0.00,Wunderground v.1.15,2013-01-19 17:46:00,
2013-01-19 11:52:00,53.2,39.7,29.94,WSW,248,5.0,11.0,60,0.00,,,0.00,Wunderground v.1.15,2013-01-19 17:52:00,
2013-01-19 11:58:00,53.2,39.2,29.94,WSW,253,7.0,11.0,59,0.00,,,0.00,Wunderground v.1.15,2013-01-19 17:58:00,
2013-01-19 12:04:00,53.5,39.5,29.95,SW,234,6.0,7.0,59,0.00,,,0.00,Wunderground v.1.15,2013-01-19 18:04:00,
2013-01-19 12:10:00,53.7,39.7,29.95,SW,236,6.0,6.0,59,0.00,,,0.00,Wunderground v.1.15,2013-01-19 18:10:00,
2013-01-19 12:16:00,53.7,39.3,29.94,WSW,248,8.0,14.0,58,0.00,,,0.00,Wunderground v.1.15,2013-01-19 18:16:00,
2013-01-19 12:22:00,53.9,39.9,29.94,SW,232,7.0,7.0,59,0.00,,,0.00,Wunderground v.1.15,2013-01-19 18:22:00,
2013-01-19 12:28:00,54.1,39.6,29.94,SW,227,7.0,13.0,58,0.00,,,0.00,Wunderground v.1.15,2013-01-19 18:28:00,
2013-01-19 12:34:00,53.9,39.5,29.94,WSW,242,9.0,9.0,58,0.00,,,0.00,Wunderground v.1.15,2013-01-19 18:34:00,
2013-01-19 12:40:00,54.0,39.5,29.93,WSW,241,8.0,8.0,58,0.00,,,0.00,Wunderground v.1.15,2013-01-19 18:40:00,
2013-01-19 12:46:00,54.3,39.8,29.93,South,172,7.0,10.0,58,0.00,,,0.00,Wunderground v.1.15,2013-01-19 18:46:00,
2013-01-19 12:52:00,54.6,39.7,29.93,West,267,7.0,10.0,57,0.00,,,0.00,Wunderground v.1.15,2013-01-19 18:52:00,
2013-01-19 12:58:00,54.7,40.2,29.93,West,259,7.0,15.0,58,0.00,,,0.00,Wunderground v.1.15,2013-01-19 18:58:00,
2013-01-19 13:04:00,55.1,40.1,29.93,SW,219,7.0,15.0,57,0.00,,,0.00,Wunderground v.1.15,2013-01-19 19:04:00,
2013-01-19 13:10:00,55.5,40.5,29.93,WSW,245,7.0,7.0,57,0.00,,,0.00,Wunderground v.1.15,2013-01-19 19:10:00,
2013-01-19 13:16:00,55.9,40.9,29.93,SSW,198,7.0,15.0,57,0.00,,,0.00,Wunderground v.1.15,2013-01-19 19:16:00,
2013-01-19 13:22:00,55.7,40.2,29.93,WSW,240,7.0,9.0,56,0.00,,,0.00,Wunderground v.1.15,2013-01-19 19:22:00,
2013-01-19 13:28:00,55.2,39.8,29.93,WSW,238,7.0,15.0,56,0.00,,,0.00,Wunderground v.1.15,2013-01-19 19:28:00,
2013-01-19 13:34:00,55.3,39.9,29.92,SW,228,6.0,15.0,56,0.00,,,0.00,Wunderground v.1.15,2013-01-19 19:34:00,
2013-01-19 13:40:00,55.6,40.1,29.93,SW,223,6.0,6.0,56,0.00,,,0.00,Wunderground v.1.15,2013-01-19 19:40:00,
2013-01-19 13:48:00,55.5,40.0,29.92,SSW,205,6.0,15.0,56,0.00,,,0.00,Wunderground v.1.15,2013-01-19 19:48:00,
2013-01-19 13:54:00,55.8,40.3,29.92,WSW,241,6.0,15.0,56,0.00,,,0.00,Wunderground v.1.15,2013-01-19 19:54:00,
2013-01-19 14:02:00,56.0,40.5,29.93,SW,215,6.0,10.0,56,0.00,,,0.00,Wunderground v.1.15,2013-01-19 20:02:00,
2013-01-19 14:08:00,56.1,40.6,29.92,WSW,244,6.0,15.0,56,0.00,,,0.00,Wunderground v.1.15,2013-01-19 20:08:00,
2013-01-19 14:14:00,56.4,40.9,29.92,SW,230,4.0,15.0,56,0.00,,,0.00,Wunderground v.1.15,2013-01-19 20:14:00,
2013-01-19 14:20:00,56.4,40.4,29.93,WSW,245,6.0,15.0,55,0.00,,,0.00,Wunderground v.1.15,2013-01-19 20:20:00,
2013-01-19 14:26:00,56.4,40.4,29.92,SW,225,5.0,15.0,55,0.00,,,0.00,Wunderground v.1.15,2013-01-19 20:26:00,
2013-01-19 14:34:00,56.6,40.6,29.92,SW,223,5.0,15.0,55,0.00,,,0.00,Wunderground v.1.15,2013-01-19 20:34:00,
2013-01-19 14:40:00,56.7,40.7,29.92,WSW,242,5.0,15.0,55,0.00,,,0.00,Wunderground v.1.15,2013-01-19 20:40:00,
2013-01-19 14:46:00,56.6,40.1,29.93,West,266,7.0,15.0,54,0.00,,,0.00,Wunderground v.1.15,2013-01-19 20:46:00,
2013-01-19 14:52:00,56.6,40.1,29.92,SW,221,7.0,15.0,54,0.00,,,0.00,Wunderground v.1.15,2013-01-19 20:52:00,
2013-01-19 14:58:00,56.7,40.2,29.93,SW,222,5.0,15.0,54,0.00,,,0.00,Wunderground v.1.15,2013-01-19 20:58:00,
2013-01-19 15:04:00,56.7,40.2,29.93,SW,229,6.0,10.0,54,0.00,,,0.00,Wunderground v.1.15,2013-01-19 21:04:00,
2013-01-19 15:10:00,56.8,40.3,29.93,SW,222,6.0,6.0,54,0.00,,,0.00,Wunderground v.1.15,2013-01-19 21:10:00,
2013-01-19 15:16:00,56.9,40.4,29.93,SW,225,6.0,6.0,54,0.00,,,0.00,Wunderground v.1.15,2013-01-19 21:16:00,
2013-01-19 15:30:00,57.1,40.6,29.94,SW,232,4.0,4.0,54,0.00,,,0.00,Wunderground v.1.15,2013-01-19 21:30:00,
2013-01-19 15:36:00,57.2,40.7,29.94,WSW,247,4.0,9.0,54,0.00,,,0.00,Wunderground v.1.15,2013-01-19 21:36:00,
2013-01-19 15:46:00,57.3,40.3,29.94,West,266,5.0,12.0,53,0.00,,,0.00,Wunderground v.1.15,2013-01-19 21:46:00,
2013-01-19 15:52:00,57.3,40.3,29.95,SW,221,4.0,11.0,53,0.00,,,0.00,Wunderground v.1.15,2013-01-19 21:52:00,
2013-01-19 15:58:00,57.2,39.7,29.95,WSW,242,4.0,12.0,52,0.00,,,0.00,Wunderground v.1.15,2013-01-19 21:58:00,
2013-01-19 16:08:00,57.1,39.6,29.95,West,268,4.0,12.0,52,0.00,,,0.00,Wunderground v.1.15,2013-01-19 22:08:00,
2013-01-19 16:14:00,57.1,39.6,29.95,WSW,252,5.0,12.0,52,0.00,,,0.00,Wunderground v.1.15,2013-01-19 22:14:00,
2013-01-19 16:20:00,56.9,39.4,29.95,SW,229,5.0,12.0,52,0.00,,,0.00,Wunderground v.1.15,2013-01-19 22:20:00,
2013-01-19 16:26:00,56.8,38.9,29.95,WSW,237,5.0,12.0,51,0.00,,,0.00,Wunderground v.1.15,2013-01-19 22:26:00,
2013-01-19 16:32:00,56.7,38.8,29.96,SW,236,4.0,12.0,51,0.00,,,0.00,Wunderground v.1.15,2013-01-19 22:32:00,
2013-01-19 16:38:00,56.4,38.5,29.96,SW,232,5.0,12.0,51,0.00,,,0.00,Wunderground v.1.15,2013-01-19 22:38:00,
2013-01-19 16:44:00,56.2,38.3,29.96,SW,231,3.0,12.0,51,0.00,,,0.00,Wunderground v.1.15,2013-01-19 22:44:00,
2013-01-19 16:50:00,55.8,37.9,29.96,WSW,238,3.0,12.0,51,0.00,,,0.00,Wunderground v.1.15,2013-01-19 22:50:00,
2013-01-19 16:56:00,55.5,37.7,29.97,WSW,244,3.0,12.0,51,0.00,,,0.00,Wunderground v.1.15,2013-01-19 22:56:00,
2013-01-19 17:02:00,55.1,37.3,29.97,WSW,242,3.0,12.0,51,0.00,,,0.00,Wunderground v.1.15,2013-01-19 23:02:00,
2013-01-19 17:08:00,54.8,36.5,29.98,WSW,257,3.0,12.0,50,0.00,,,0.00,Wunderground v.1.15,2013-01-19 23:08:00,
2013-01-19 17:14:00,54.5,36.2,29.98,WNW,283,3.0,12.0,50,0.00,,,0.00,Wunderground v.1.15,2013-01-19 23:14:00,
2013-01-19 17:20:00,54.2,35.9,29.98,West,259,3.0,12.0,50,0.00,,,0.00,Wunderground v.1.15,2013-01-19 23:20:00,
2013-01-19 17:28:00,53.9,35.7,29.99,WSW,250,3.0,12.0,50,0.00,,,0.00,Wunderground v.1.15,2013-01-19 23:28:00,
2013-01-19 17:34:00,53.5,35.3,29.99,WSW,250,2.0,12.0,50,0.00,,,0.00,Wunderground v.1.15,2013-01-19 23:34:00,
2013-01-19 17:40:00,53.1,34.9,29.99,WSW,250,2.0,2.0,50,0.00,,,0.00,Wunderground v.1.15,2013-01-19 23:40:00,
2013-01-19 17:46:00,52.7,34.6,30.00,WSW,252,3.0,12.0,50,0.00,,,0.00,Wunderground v.1.15,2013-01-19 23:46:00,
2013-01-19 17:54:00,52.2,34.1,30.00,WSW,251,2.0,12.0,50,0.00,,,0.00,Wunderground v.1.15,2013-01-19 23:54:00,
2013-01-19 18:02:00,51.7,33.6,30.01,WSW,244,3.0,3.0,50,0.00,,,0.00,Wunderground v.1.15,2013-01-20 00:02:00,
2013-01-19 18:08:00,51.5,33.5,30.01,WSW,244,2.0,3.0,50,0.00,,,0.00,Wunderground v.1.15,2013-01-20 00:08:00,
2013-01-19 18:14:00,51.2,33.2,30.01,WSW,246,2.0,2.0,50,0.00,,,0.00,Wunderground v.1.15,2013-01-20 00:14:00,
2013-01-19 18:20:00,50.9,33.4,30.01,WSW,246,2.0,2.0,51,0.00,,,0.00,Wunderground v.1.15,2013-01-20 00:20:00,
2013-01-19 18:28:00,50.6,33.1,30.02,WSW,248,2.0,4.0,51,0.00,,,0.00,Wunderground v.1.15,2013-01-20 00:28:00,
2013-01-19 18:34:00,50.6,33.1,30.02,WSW,250,2.0,4.0,51,0.00,,,0.00,Wunderground v.1.15,2013-01-20 00:34:00,
2013-01-19 18:40:00,50.5,33.0,30.02,WSW,250,2.0,2.0,51,0.00,,,0.00,Wunderground v.1.15,2013-01-20 00:40:00,
2013-01-19 18:46:00,50.3,32.8,30.03,WSW,250,2.0,3.0,51,0.00,,,0.00,Wunderground v.1.15,2013-01-20 00:46:00,
2013-01-19 18:52:00,50.3,32.8,30.03,WSW,252,2.0,2.0,51,0.00,,,0.00,Wunderground v.1.15,2013-01-20 00:52:00,
2013-01-19 18:58:00,50.3,32.8,30.04,WSW,254,2.0,6.0,51,0.00,,,0.00,Wunderground v.1.15,2013-01-20 00:58:00,
2013-01-19 19:04:00,50.0,32.6,30.04,WSW,255,2.0,6.0,51,0.00,,,0.00,Wunderground v.1.15,2013-01-20 01:04:00,
2013-01-19 19:10:00,49.8,32.4,30.04,WSW,255,2.0,6.0,51,0.00,,,0.00,Wunderground v.1.15,2013-01-20 01:10:00,
2013-01-19 19:16:00,49.7,32.3,30.04,WSW,254,1.0,6.0,51,0.00,,,0.00,Wunderground v.1.15,2013-01-20 01:16:00,
2013-01-19 19:22:00,49.4,32.0,30.05,WSW,254,2.0,6.0,51,0.00,,,0.00,Wunderground v.1.15,2013-01-20 01:22:00,
2013-01-19 19:28:00,49.2,31.8,30.05,WSW,255,2.0,6.0,51,0.00,,,0.00,Wunderground v.1.15,2013-01-20 01:28:00,
2013-01-19 19:34:00,49.0,31.6,30.06,WSW,254,2.0,6.0,51,0.00,,,0.00,Wunderground v.1.15,2013-01-20 01:34:00,
2013-01-19 19:40:00,49.0,32.1,30.06,WSW,255,2.0,6.0,52,0.00,,,0.00,Wunderground v.1.15,2013-01-20 01:40:00,
2013-01-19 19:46:00,48.9,32.0,30.07,West,275,2.0,6.0,52,0.00,,,0.00,Wunderground v.1.15,2013-01-20 01:46:00,
2013-01-19 19:52:00,48.8,31.9,30.07,NW,306,2.0,6.0,52,0.00,,,0.00,Wunderground v.1.15,2013-01-20 01:52:00,
2013-01-19 19:58:00,49.1,32.2,30.07,WNW,298,3.0,7.0,52,0.00,,,0.00,Wunderground v.1.15,2013-01-20 01:58:00,
2013-01-19 20:04:00,49.4,32.5,30.08,WNW,296,4.0,6.0,52,0.00,,,0.00,Wunderground v.1.15,2013-01-20 02:04:00,
2013-01-19 20:10:00,49.6,32.7,30.08,NW,309,4.0,7.0,52,0.00,,,0.00,Wunderground v.1.15,2013-01-20 02:10:00,
2013-01-19 20:16:00,49.7,32.8,30.08,WNW,296,5.0,7.0,52,0.00,,,0.00,Wunderground v.1.15,2013-01-20 02:16:00,
2013-01-19 20:22:00,49.7,32.8,30.08,NW,312,5.0,6.0,52,0.00,,,0.00,Wunderground v.1.15,2013-01-20 02:22:00,
2013-01-19 20:30:00,49.5,32.6,30.09,NW,314,6.0,9.0,52,0.00,,,0.00,Wunderground v.1.15,2013-01-20 02:30:00,
2013-01-19 20:36:00,49.3,31.9,30.09,NW,308,6.0,9.0,51,0.00,,,0.00,Wunderground v.1.15,2013-01-20 02:36:00,
2013-01-19 20:42:00,49.0,31.6,30.10,NW,317,5.0,6.0,51,0.00,,,0.00,Wunderground v.1.15,2013-01-20 02:42:00,
2013-01-19 20:48:00,48.7,31.8,30.10,NW,318,6.0,10.0,52,0.00,,,0.00,Wunderground v.1.15,2013-01-20 02:48:00,
2013-01-19 20:54:00,48.4,31.1,30.10,WNW,302,6.0,6.0,51,0.00,,,0.00,Wunderground v.1.15,2013-01-20 02:54:00,
2013-01-19 21:00:00,47.9,31.1,30.10,NW,317,4.0,9.0,52,0.00,,,0.00,Wunderground v.1.15,2013-01-20 03:00:00,
2013-01-19 21:06:00,47.6,30.8,30.10,NW,318,5.0,10.0,52,0.00,,,0.00,Wunderground v.1.15,2013-01-20 03:06:00,
2013-01-19 21:12:00,47.3,30.5,30.11,NW,307,4.0,4.0,52,0.00,,,0.00,Wunderground v.1.15,2013-01-20 03:12:00,
2013-01-19 21:18:00,47.0,30.3,30.11,NW,307,4.0,9.0,52,0.00,,,0.00,Wunderground v.1.15,2013-01-20 03:18:00,
2013-01-19 21:24:00,46.7,30.0,30.12,WNW,301,5.0,5.0,52,0.00,,,0.00,Wunderground v.1.15,2013-01-20 03:24:00,
2013-01-19 21:30:00,46.6,30.4,30.12,NW,305,5.0,7.0,53,0.00,,,0.00,Wunderground v.1.15,2013-01-20 03:30:00,
2013-01-19 21:36:00,46.3,30.1,30.12,NW,311,5.0,7.0,53,0.00,,,0.00,Wunderground v.1.15,2013-01-20 03:36:00,
2013-01-19 21:42:00,46.2,30.0,30.13,NW,306,5.0,7.0,53,0.00,,,0.00,Wunderground v.1.15,2013-01-20 03:42:00,
2013-01-19 21:48:00,46.1,29.9,30.13,NW,306,6.0,9.0,53,0.00,,,0.00,Wunderground v.1.15,2013-01-20 03:48:00,
2013-01-19 21:54:00,45.9,29.7,30.13,NW,310,5.0,7.0,53,0.00,,,0.00,Wunderground v.1.15,2013-01-20 03:54:00,
2013-01-19 22:00:00,45.6,29.4,30.13,WNW,302,4.0,4.0,53,0.00,,,0.00,Wunderground v.1.15,2013-01-20 04:00:00,
2013-01-19 22:06:00,45.4,29.3,30.13,WNW,303,3.0,9.0,53,0.00,,,0.00,Wunderground v.1.15,2013-01-20 04:06:00,
2013-01-19 22:12:00,45.1,29.0,30.14,WNW,299,3.0,9.0,53,0.00,,,0.00,Wunderground v.1.15,2013-01-20 04:12:00,
2013-01-19 22:18:00,44.7,29.1,30.14,WNW,302,3.0,9.0,54,0.00,,,0.00,Wunderground v.1.15,2013-01-20 04:18:00,
2013-01-19 22:24:00,44.5,28.9,30.14,NW,306,3.0,9.0,54,0.00,,,0.00,Wunderground v.1.15,2013-01-20 04:24:00,
2013-01-19 22:30:00,44.2,28.6,30.14,NW,306,3.0,9.0,54,0.00,,,0.00,Wunderground v.1.15,2013-01-20 04:30:00,
2013-01-19 22:36:00,44.0,28.4,30.14,NW,307,3.0,9.0,54,0.00,,,0.00,Wunderground v.1.15,2013-01-20 04:36:00,
2013-01-19 22:42:00,43.8,28.7,30.15,WNW,296,3.0,9.0,55,0.00,,,0.00,Wunderground v.1.15,2013-01-20 04:42:00,
2013-01-19 22:48:00,43.6,28.5,30.15,WNW,297,3.0,9.0,55,0.00,,,0.00,Wunderground v.1.15,2013-01-20 04:48:00,
2013-01-19 22:54:00,43.5,28.4,30.15,WNW,297,3.0,9.0,55,0.00,,,0.00,Wunderground v.1.15,2013-01-20 04:54:00,
2013-01-19 23:00:00,43.4,28.3,30.15,WNW,296,3.0,9.0,55,0.00,,,0.00,Wunderground v.1.15,2013-01-20 05:00:00,
2013-01-19 23:02:00,43.4,28.7,30.15,NW,307,3.0,9.0,56,0.00,,,0.00,Wunderground v.1.15,2013-01-20 05:02:00,
2013-01-19 23:04:00,43.4,28.7,30.15,WNW,298,4.0,9.0,56,0.00,,,0.00,Wunderground v.1.15,2013-01-20 05:04:00,
2013-01-19 23:10:00,43.4,28.7,30.16,NW,305,4.0,11.0,56,0.00,,,0.00,Wunderground v.1.15,2013-01-20 05:10:00,
2013-01-19 23:16:00,43.3,28.6,30.16,NW,305,4.0,11.0,56,0.00,,,0.00,Wunderground v.1.15,2013-01-20 05:16:00,
2013-01-19 23:22:00,43.2,28.5,30.16,WNW,298,4.0,9.0,56,0.00,,,0.00,Wunderground v.1.15,2013-01-20 05:22:00,
2013-01-19 23:28:00,43.1,28.9,30.16,NW,310,5.0,9.0,57,0.00,,,0.00,Wunderground v.1.15,2013-01-20 05:28:00,
2013-01-19 23:34:00,43.0,28.8,30.16,NW,317,5.0,9.0,57,0.00,,,0.00,Wunderground v.1.15,2013-01-20 05:34:00,
2013-01-19 23:40:00,42.8,28.6,30.16,NW,317,5.0,9.0,57,0.00,,,0.00,Wunderground v.1.15,2013-01-20 05:40:00,
2013-01-19 23:46:00,42.5,28.3,30.17,NW,312,5.0,9.0,57,0.00,,,0.00,Wunderground v.1.15,2013-01-20 05:46:00,
2013-01-19 23:52:00,42.3,28.1,30.17,NW,312,5.0,12.0,57,0.00,,,0.00,Wunderground v.1.15,2013-01-20 05:52:00,
2013-01-19 23:58:00,42.0,28.3,30.17,WNW,302,7.0,12.0,58,0.00,,,0.00,Wunderground v.1.15,2013-01-20 05:58:00,